| time (UTC) | temp F | wind direction | speed MPH | gust MPH | rain 1hr in | rain 24hr in | rain mn in | humidity % | barometer mb |
| 20260503173034 | 68 | 298 | 13.0 | 24.0 | 0.00 | 0.00 | 0.00 | 25 | 1012.2 |
| 20260503171537 | 67 | 286 | 10.0 | 22.0 | 0.00 | 0.00 | 0.00 | 24 | 1012.2 |
| 20260503081534 | 48 | 284 | 3.0 | 9.0 | 0.00 | 0.00 | 0.00 | 67 | 1015.2 |
| 20260503071552 | 48 | 266 | 2.0 | 6.0 | 0.00 | 0.00 | 0.00 | 65 | 1015.7 |
| 20260503054530 | 51 | 312 | 2.0 | 4.0 | 0.00 | 0.00 | 0.00 | 58 | 1015.9 |
| 20260503053036 | 52 | 312 | 3.0 | 5.0 | 0.00 | 0.00 | 0.00 | 54 | 1015.9 |
| 20260503051530 | 51 | 304 | 3.0 | 8.0 | 0.00 | 0.00 | 0.00 | 53 | 1016.1 |
| 20260503050032 | 55 | 288 | 3.0 | 10.0 | 0.00 | 0.00 | 0.00 | 48 | 1016.1 |
| 20260503044544 | 54 | 202 | 8.0 | 12.0 | 0.00 | 0.00 | 0.00 | 50 | 1016.0 |
| 20260503043042 | 54 | 144 | 6.0 | 8.0 | 0.00 | 0.00 | 0.00 | 48 | 1016.1 |
| 20260503041530 | 55 | 200 | 2.0 | 6.0 | 0.00 | 0.00 | 0.00 | 49 | 1016.2 |
| 20260503040038 | 56 | 138 | 3.0 | 5.0 | 0.00 | 0.00 | 0.00 | 46 | 1016.0 |
| 20260503034532 | 56 | 85 | 2.0 | 4.0 | 0.00 | 0.00 | 0.00 | 46 | 1016.2 |
| 20260503033032 | 55 | 85 | 3.0 | 7.0 | 0.00 | 0.00 | 0.00 | 46 | 1016.2 |
| 20260503031534 | 56 | 90 | 3.0 | 7.0 | 0.00 | 0.00 | 0.00 | 45 | 1015.9 |
| 20260503030032 | 57 | 81 | 6.0 | 8.0 | 0.00 | 0.00 | 0.00 | 44 | 1015.8 |
| 20260503024529 | 57 | 78 | 6.0 | 8.0 | 0.00 | 0.00 | 0.00 | 45 | 1015.7 |
| 20260503023030 | 58 | 80 | 5.0 | 8.0 | 0.00 | 0.00 | 0.00 | 43 | 1015.7 |
| 20260503021529 | 61 | 67 | 6.0 | 9.0 | 0.00 | 0.00 | 0.00 | 40 | 1015.7 |
| 20260503020030 | 62 | 49 | 2.0 | 4.0 | 0.00 | 0.00 | 0.00 | 39 | 1015.6 |
| 20260503014529 | 63 | 40 | 3.0 | 6.0 | 0.00 | 0.00 | 0.00 | 38 | 1015.7 |
| 20260503013034 | 63 | 36 | 5.0 | 8.0 | 0.00 | 0.00 | 0.00 | 38 | 1015.6 |
| 20260503011535 | 63 | 22 | 3.0 | 8.0 | 0.00 | 0.00 | 0.00 | 39 | 1015.9 |
| 20260503010036 | 63 | 350 | 6.0 | 10.0 | 0.00 | 0.00 | 0.00 | 39 | 1015.9 |
| 20260503004554 | 63 | 9 | 3.0 | 5.0 | 0.00 | 0.00 | 0.00 | 38 | 1015.9 |
| 20260503003032 | 63 | 330 | 5.0 | 10.0 | 0.00 | 0.00 | 0.00 | 38 | 1016.2 |
| 20260503001530 | 64 | 350 | 7.0 | 10.0 | 0.00 | 0.00 | 0.00 | 38 | 1016.3 |
| 20260503000043 | 65 | 28 | 2.0 | 7.0 | 0.00 | 0.00 | 0.00 | 36 | 1016.3 |
| 20260502234532 | 66 | 336 | 3.0 | 11.0 | 0.00 | 0.00 | 0.00 | 36 | 1016.4 |
| 20260502233029 | 66 | 5 | 5.0 | 10.0 | 0.00 | 0.00 | 0.00 | 35 | 1016.5 |
| 20260502231533 | 64 | 0 | 1.0 | 10.0 | 0.00 | 0.00 | 0.00 | 39 | 1016.8 |
| 20260502230032 | 63 | 314 | 6.0 | 10.0 | 0.00 | 0.00 | 0.00 | 39 | 1017.0 |
| 20260502224532 | 64 | 350 | 9.0 | 12.0 | 0.00 | 0.00 | 0.00 | 38 | 1017.2 |
| 20260502223031 | 65 | 36 | 5.0 | 12.0 | 0.00 | 0.00 | 0.00 | 37 | 1017.3 |
| 20260502221530 | 63 | 330 | 5.0 | 12.0 | 0.00 | 0.00 | 0.00 | 39 | 1017.5 |
| 20260502220033 | 63 | 264 | 1.0 | 12.0 | 0.00 | 0.00 | 0.00 | 39 | 1017.8 |
| 20260502214528 | 63 | 5 | 7.0 | 13.0 | 0.00 | 0.00 | 0.00 | 40 | 1018.1 |
| 20260502213039 | 64 | 76 | 5.0 | 14.0 | 0.00 | 0.00 | 0.00 | 38 | 1018.1 |
| 20260502211536 | 63 | 34 | 3.0 | 11.0 | 0.00 | 0.00 | 0.00 | 40 | 1018.2 |
| 20260502210032 | 62 | 288 | 5.0 | 15.0 | 0.00 | 0.00 | 0.00 | 41 | 1018.6 |
| 20260502204530 | 63 | 36 | 8.0 | 17.0 | 0.00 | 0.00 | 0.00 | 40 | 1018.7 |
| 20260502203030 | 62 | 63 | 5.0 | 15.0 | 0.00 | 0.00 | 0.00 | 41 | 1018.7 |
| 20260502201533 | 61 | 360 | 6.0 | 15.0 | 0.00 | 0.00 | 0.00 | 42 | 1018.8 |
| 20260502200034 | 60 | 50 | 7.0 | 15.0 | 0.00 | 0.00 | 0.00 | 44 | 1019.1 |
| 20260502194536 | 60 | 42 | 9.0 | 17.0 | 0.00 | 0.00 | 0.00 | 45 | 1019.4 |
| 20260502193039 | 60 | 31 | 9.0 | 19.0 | 0.00 | 0.00 | 0.00 | 45 | 1019.4 |
| 20260502191532 | 60 | 340 | 10.0 | 17.0 | 0.00 | 0.00 | 0.00 | 45 | 1019.5 |
| 20260502190042 | 59 | 5 | 12.0 | 20.0 | 0.00 | 0.00 | 0.00 | 45 | 1019.7 |
| 20260502184530 | 60 | 37 | 11.0 | 19.0 | 0.00 | 0.00 | 0.00 | 44 | 1019.6 |
| 20260502183030 | 59 | 30 | 8.0 | 16.0 | 0.00 | 0.00 | 0.00 | 46 | 1019.8 |
| 20260502181537 | 59 | 5 | 10.0 | 18.0 | 0.00 | 0.00 | 0.00 | 46 | 1019.8 |